Preview of NWS' New Version of Forecast
This preview is not operational and should not be used for support decisions.

Regional Weather Roundup (RWR)

Issued by National Weather Service (NWS)

                            
000
ASUS45 KBOU 170510
RWRCO 

WEATHER ROUNDUP FOR COLORADO
NATIONAL WEATHER SERVICE DENVER/BOULDER CO
1000 PM MST SAT FEB 16 2019

NOTE: "FAIR" INDICATES FEW OR NO CLOUDS BELOW 12000 FEET WITH NO
SIGNIFICANT WEATHER AND/OR OBSTRUCTIONS TO VISIBILITY.

COZ001>005-013-030-031-170600-
...NORTHWEST COLORADO...
  
CITY           SKY/WX    TMP DP  RH WIND       PRES   REMARKS
CRAIG          CLOUDY     9   4  80 W6        29.80S WCI  -1          
HAYDEN         FAIR      14   7  73 E5        29.80R WCI   6          
MEEKER         CLOUDY    17  11  77 NE3       29.80R                  
RANGELY        MOCLDY    11   7  85 SE3       29.83R                  
RABBIT EARS PA LGT SNOW N/A N/A N/A W9G22     29.63R                  
STEAMBOAT SPGS CLOUDY    14   6  71 E6        29.77R WCI   5          
WALDEN         CLOUDY    10   1  67 SW9       29.69F WCI  -2          
$$

COZ006>008-011-170600-
...WEST CENTRAL VALLEYS...
  
CITY           SKY/WX    TMP DP  RH WIND       PRES   REMARKS
GRAND JUNCTION FAIR      28  22  78 E5        29.82R WCI  23          
MONTROSE       FAIR      22  12  65 S12       29.85R WCI  10          
EAGLE          FAIR       7   1  76 E12       29.83R WCI  -8          
RIFLE          CLOUDY    19  10  68 S6        29.84R WCI  11          
DELTA          FAIR      29  19  67 E8        29.85R WCI  21          
NUCLA          FAIR      25  12  58 E13       29.85R WCI  13          
$$

COZ017>023-064>068-170600-
...SOUTHWEST COLORADO...
  
CITY           SKY/WX    TMP DP  RH WIND       PRES   REMARKS
DURANGO        FAIR      16  11  80 NW5       29.81R WCI   9          
CORTEZ         FAIR      25  15  66 NE6       29.83R WCI  18          
PAGOSA SPRINGS NOT AVBL                                               
TELLURIDE      FAIR      10   1  67 E3        29.77S                  
WOLF CREEK PAS MOCLDY     0  -8  71 W6        29.72S WCI -12          
$$

COZ009-010-012-014-032>034-037-058>063-170600-
...CENTRAL COLORADO...
  
CITY           SKY/WX    TMP DP  RH WIND       PRES   REMARKS
ASPEN          FAIR       9   0  67 SW8       29.75R WCI  -3          
BUENA VISTA    FAIR       8  -4  59 W6        29.74R WCI  -2          
COPPER MTN     CLOUDY     3  -4  72 W22       29.56S WCI -19          
BERTHOUD PASS  CLOUDY    -6 -17  59 NW29G37   29.49S WCI -33          
DAKOTA HILL    CLOUDY     0  -4  85 MISG      29.51R                  
COTTONWOOD PAS FAIR      12  -4  48 W22G35    29.66R WCI  -7          
GUNNISON       FAIR       0  -5  79 CALM      29.81R                  
GRANBY         CLOUDY    11   2  70 CALM      29.72S                  
KREMMLING      CLOUDY    14  10  85 E3        29.76R                  
LEADVILLE      LGT SNOW   4  -2  76 NE6       29.66R WCI  -7          
MONARCH PASS   FAIR      -2  -8  78 MISG      29.71R                  
SALIDA         FAIR      21  -2  37 W14G22    29.82R WCI   8          
SUNLIGHT         N/A    N/A N/A N/A MISG      29.73R                  
WILKERSON PASS FAIR       1  -9  60 NW13G24   29.59S WCI -16          
$$

COZ069>075-170600-
...SAN LUIS VALLEY/SANGRE DE CRISTO MOUNTAINS...
  
CITY           SKY/WX    TMP DP  RH WIND       PRES   REMARKS
ALAMOSA        FAIR      15   3  59 N10       29.76R WCI   2          
DEL NORTE      FAIR      15   0  50 W13       29.77R WCI   1          
LA VETA PASS   NOT AVBL                                               
SAGUACHE       FAIR      10   3  72 CALM      29.78R                  
$$

COZ035-036-038>040-170600-
...NORTHERN COLORADO FRONT RANGE...
  
CITY           SKY/WX    TMP DP  RH WIND       PRES   REMARKS
DENVER INTL AP FAIR      22   6  50 W10       29.70R WCI  11          
AURORA         PTCLDY    22   4  45 W9        29.70R WCI  12          
FRONT RANGE AP NOT AVBL                                               
ERIE MUNI ARPT FAIR      27   3  37 W12       29.76R WCI  16          
BOULDER MUN AP FAIR      30   0  27 W5        29.70R WCI  25          
CENTENNIAL     FAIR      25   3  38 W13       29.70R WCI  14          
BROOMFIELD     FAIR      25   3  39 CALM      29.70R                  
FORT COLLINS   FAIR      28   2  32 NW14      29.71R WCI  17          
LONGMONT       FAIR      27   1  33 SW6       29.72R WCI  21          
$$

COZ041-046-047-076>085-087-088-170600-
...PIKES PEAK/PALMER DIVIDE AND SOUTHERN FOOTHILLS...
  
CITY           SKY/WX    TMP DP  RH WIND       PRES   REMARKS
COLO. SPRINGS  FAIR      26   1  34 NW18      29.70R WCI  13          
A. F. ACADEMY  FAIR      22  -3  33 NE7       29.68R WCI  13          
SCHRIEVER AFB  NOT AVBL                                               
CHEYENNE MTN   FAIR      22  -2  35 SE3       29.63R                  
ELLICOTT       NOT AVBL                                               
FALCON         FAIR      15  -1  48 CALM      29.69R                  
FORT CARSON    CLEAR     25  -1  32 W10       29.69R WCI  15          
LIMON          FAIR      19  15  84 NW9       29.69R WCI   8          
MONUMENT HILL  FAIR      14   3  62 W8        29.69R WCI   3          
CANON CITY     NOT AVBL                                               
WALSENBURG     NOT AVBL                                               
TRINIDAD       FAIR      23  19  85 S8        29.75S WCI  14          
$$

COZ042>045-048>051-090-091-170600-
...NORTHEAST COLORADO...
  
CITY           SKY/WX    TMP DP  RH WIND       PRES   REMARKS
GREELEY ARPT   FAIR      22   6  50 N9        29.72R WCI  12          
AKRON          CLOUDY    27  21  78 NW16      29.69R WCI  15          
BURLINGTON     FAIR      24  21  88 NW9       29.68R WCI  14          
WRAY           CLOUDY    28  21  74 N12       29.71R WCI  18          
YUMA           CLOUDY    30  19  64 NW12G18   29.69R WCI  21          
STERLING       CLOUDY    30  21  69 N10       29.71R WCI  21          
HOLYOKE        MOCLDY    27  21  80 N10       29.71R WCI  17          
FORT MORGAN      N/A     25  11  54 N10       29.72R WCI  15          
$$

COZ086-089-092>099-170600-
...SOUTHEAST COLORADO...
  
CITY           SKY/WX    TMP DP  RH WIND       PRES   REMARKS
PUEBLO         FAIR      25  22  88 SW6       29.75R WCI  18          
LA JUNTA       FAIR      30  22  72 SW10      29.75R WCI  21          
LAMAR          FAIR      24  22  91 SW8       29.72R WCI  15          
SPRINGFIELD      N/A     22  21  96 NW12      29.73S WCI  10          
$$